Location: Bretagne
(43.8474°N, 0.4650°W)
Time: 23:44:20
(UTC+00:00)

Cosmos 1656 - Visible Passes

Search period start: 18 April 2026 00:00
Search period end: 28 April 2026 00:00
Orbit: 798 x 846 km, 71.1° (Epoch: 18 April)

Date Brightness Start Highest point End Pass type
(mag) Time Alt. Az. Time Alt. Az. Time Alt. Az.
18 Apr 5.5 00:25:18 10° NW 00:27:19 22° NW 00:27:19 22° NW visible
18 Apr 5.2 22:21:07 10° N 22:25:17 25° NE 22:25:17 25° NE visible
19 Apr 5.3 00:04:12 10° NNW 00:06:41 27° NW 00:06:41 27° NW visible
19 Apr 5.3 22:00:14 10° N 22:04:27 22° NE 22:04:40 22° NE visible
19 Apr 5.0 23:43:05 10° NNW 23:46:04 32° NW 23:46:04 32° NW visible
20 Apr 5.4 21:39:24 10° N 21:43:18 19° NE 21:44:05 19° ENE visible
20 Apr 4.7 23:22:02 10° NNW 23:25:28 40° NW 23:25:28 40° NW visible
21 Apr 5.5 21:18:36 10° N 21:22:08 17° NE 21:23:30 16° ENE visible
21 Apr 4.4 23:00:58 10° NNW 23:04:54 49° NNW 23:04:54 49° NNW visible
22 Apr 5.6 20:57:51 10° N 21:00:57 15° NE 21:02:57 13° ENE visible
22 Apr 4.1 22:39:57 10° NNW 22:44:21 58° N 22:44:21 58° N visible
23 Apr 6.1 00:25:30 10° WNW 00:25:44 11° WNW 00:25:44 11° WNW visible
23 Apr 5.8 20:37:11 10° NNE 20:39:45 13° NE 20:42:17 10° ENE visible
23 Apr 3.8 22:18:55 10° NNW 22:23:49 64° NNE 22:23:49 64° NNE visible
24 Apr 5.9 00:03:57 10° WNW 00:05:13 14° WNW 00:05:13 14° WNW visible
24 Apr 5.8 20:16:43 10° NNE 20:18:32 12° NE 20:20:21 10° ENE visible
24 Apr 3.8 21:57:55 10° NNW 22:03:19 59° ENE 22:03:19 59° ENE visible
24 Apr 5.7 23:42:32 10° NW 23:44:42 18° WNW 23:44:42 18° WNW visible
25 Apr 6.0 19:57:04 10° NE 19:57:18 10° NE 19:57:32 10° NE visible
25 Apr 3.9 21:36:56 10° NNW 21:42:16 50° ENE 21:42:50 48° E visible
25 Apr 5.4 23:21:13 10° NW 23:24:14 22° W 23:24:14 22° W visible
26 Apr 4.2 21:15:58 10° NNW 21:21:11 43° ENE 21:22:23 38° E visible
26 Apr 5.1 22:59:57 10° NW 23:03:47 27° W 23:03:47 27° W visible
27 Apr 4.4 20:55:01 10° N 21:00:06 37° ENE 21:01:58 29° E visible
27 Apr 4.8 22:38:44 10° NW 22:43:22 33° W 22:43:22 33° W visible
